Powrót do katalogu

FENGYUN 1C DEB

AktywnySSO
NORAD 31609·DEBRIS·🇨🇳 China

Wystrzelony May 10, 1999 z Taiyuan Satellite Launch Center

Loading…

Następne Przeloty (najbliższe 24 godziny)

TLE

ŚwieżeSource: Space-Track

Epoka: Sep 13, 2026, 01:34 UTC

1 31609U 99025BZP 26256.06571296  .00002433  00000-0  11720-2 0  9996
2 31609  99.1986 299.0270 0090978 262.9815 126.1297 14.17583398699694

Śledź FENGYUN 1C DEB w czasie rzeczywistym z AllMySat

Download on the App Store